Regional Weather Roundup
Issued by NWS Upton, NY

Current Version | Previous Version | Text Only | Print | Product List | Glossary Off
Versions: 1 2 3 4 5 6 7 8 9 10 11 12 13 14 15 16 17 18 19 20 21 22 23 24 25 26 27
000 ASUS41 KOKX 291904 RWROKX REGIONAL WEATHER ROUNDUP NATIONAL WEATHER SERVICE NEW YORK NY 300 PM EDT FRI JUL 29 2016 NOTE: "FAIR" INDICATES FEW OR NO CLOUDS BELOW 12,000 FEET WITH NO SIGNIFICANT WEATHER AND/OR OBSTRUCTIONS TO VISIBILITY. NYZ071-072-176-178-NJZ106-104-292000- NEW YORK CITY METRO AREA CITY SKY/WX TMP DP RH WIND PRES REMARKS Central Park PTSUNNY 81 68 64 VRB3 29.87R LaGuardia APRT MOSUNNY 81 69 67 NE9 29.83S Kennedy INTL MOSUNNY 83 67 58 N13 29.84S Newark/Liberty MOSUNNY 85 67 54 N12 29.82F Bronx Bot Gard N/A 79 68 69 NE10 29.86S Wall St Helipt MOCLDY 84 70 61 NE9 29.84R Teterboro PTSUNNY 84 66 54 E7 29.81S $$ NYZ177-179-078>081-292000- LONG ISLAND NEW YORK CITY SKY/WX TMP DP RH WIND PRES REMARKS Farmingdale MOSUNNY 81 69 67 NE10 29.83S MacArthur/ISP MOSUNNY 81 67 62 NE13 29.82S Shirley PTSUNNY N/A N/A N/A N8 29.83S Riverhead NOT AVBL Westhampton PTSUNNY 80 67 64 NE14G22 29.83F Southhampton N/A 79 70 73 E5 29.78S Bridgehampton N/A 75 70 83 E3 29.81S East Hampton CLOUDY 75 69 80 NE10G18 29.81F Montauk N/A 75 70 84 NE7 29.82F $$ NYZ052-065-067-292000- HUDSON VALLEY CITY SKY/WX TMP DP RH WIND PRES REMARKS White Plains PTSUNNY 79 70 74 SE10 29.84S Newburgh MOSUNNY 86 68 54 NE8 29.85 Montgomery SUNNY 86 67 52 NE9 29.84S Poughkeepsie MOSUNNY 89 65 44 VRB7 29.81F HX 91 Albany PTSUNNY 84 63 49 N13 29.85F $$ NJZ001-105-106-008-010-013-015-019>022-104-292000- NEW JERSEY CITY SKY/WX TMP DP RH WIND PRES REMARKS Newark/Liberty MOSUNNY 85 67 54 N12 29.82F Teterboro PTSUNNY 84 66 54 E7 29.81S Caldwell PTSUNNY 85 68 56 VRB7 29.84R Morristown PTSUNNY 84 70 61 NE3 29.84S Somerville MOSUNNY 88 67 49 NE6 29.82R HX 91 Linden MOCLDY 84 64 50 E5 29.85S Sussex SUNNY 85 69 58 NE7 29.85F Abdover N/A 84 66 54 N6 29.86S Trenton PTSUNNY 82 68 62 CALM 29.84R Millville PTSUNNY 85 68 56 N6 29.84R Atlantic City MOSUNNY 83 69 62 N12 29.84R Wrightstown PTSUNNY 80 69 69 NE7 29.83R Toms River PTSUNNY 80 69 69 NE7 29.85S Belmar CLOUDY 79 69 71 NE8 29.86R $$ PAZ047>061-062-071-292000- EASTERN PENNSYLVANIA CITY SKY/WX TMP DP RH WIND PRES REMARKS Philadelphia PTSUNNY 86 68 54 NE6 29.84R Allentown MOSUNNY 87 67 51 VRB5 29.86R HX 90 Scranton CLOUDY 87 64 46 N7 29.88S $$ CTZ002-004>006-009-010-012-RIZ004-006-007-MAZ004-011-015-292000- SOUTHERN NEW ENGLAND IN CT CITY SKY/WX TMP DP RH WIND PRES REMARKS Bradley INTL MOSUNNY 88 63 43 VRB5 29.82F Hartford PTSUNNY 87 65 47 E5 29.81F Danbury PTSUNNY 82 64 54 NE8 29.85S Wtrbury/Oxford PTSUNNY 81 64 57 E7 29.88S Bridgeport MOSUNNY 80 68 66 SE9 29.83S Meriden MOSUNNY 86 65 49 VRB5 29.83S New Haven MOSUNNY 83 66 56 VRB3 29.82F Chester FAIR 81 66 61 NE8 29.84S Groton CLOUDY 83 70 64 NE9 29.80F Wilimantic SUNNY 86 65 49 NE7 29.83S IN RI CITY SKY/WX TMP DP RH WIND PRES REMARKS Providence CLOUDY 80 68 66 NE12 29.83F Block Island CLOUDY 72 70 93 NE7 29.82 Westerly PTSUNNY 79 69 71 NE7 29.82F IN MA CITY SKY/WX TMP DP RH WIND PRES REMARKS Boston MOSUNNY 78 70 76 E12 29.84F Worchester MOSUNNY 82 62 50 VRB7 29.87F Westfield MOSUNNY 90 61 37 N7 29.81F HX 90 Provincetown CLOUDY 72 71 97 NE9 29.84F FOG Nantucket CLOUDY 70 67 90 NE13 29.82S $$ ANZ330-335-338-340-345-350-353-355-292000- COASTAL MARINE OBSERVATIONS STATION/POSITION TIME SKY/WX TEMP WIND PRES VSBY WAVE AIR SEA DIR/SP/G HT/PER (UTC) (F) (DEG/KT/KT) (MB) (MI) (FT/S) NY HARB ENTRANCE 1750 72 72 30/ 14/ 17 1009.6 3/ 4 20S FIRE ISLAND 1750 71 73 30/ 19/ 21 1008.5 4/ 5 GREAT SOUTH BAY 1815 75 81 20/ 12/ 17 N/A 23 SSW MONTAUK P 1750 70 72 40/ 25/ 31 1008.8 3/ 5 15 E BARNEGAT LI 1800 78 N/A 6/ 6 HUDSON CANYON 1750 80 79 1006.4 2/ 4 KINGS POINT 1800 79 73 1010.0 EXECUTION ROCKS 1815 74 70/ 12/ 16 N/A CENTRAL LI SOUND 1800 75 75 30/ 8/ 10 N/A 1/ 3 EASTERN LI SOUND 1800 71 68 40/ 4/ 6 N/A ROBBINS REEF 1800 77 40/ 6/ 7 1009.5 $$ >>>>>>>>>>>>>>>>>>>>>>>>>>>> KEY <<<<<<<<<<<<<<<<<<<<<<<<<<< > < > SKY/WX - Sky Condition/Present Weather < > TMP - Temperature in Fahrenheit < > DP - Dew Point in Fahrenheit < > RH - Relative Humidity in Percent < > WIND - Direction (from) and Speed in MPH < > PRES - Mean Sea Level Pressure (inches of Hg) < > WCI - Wind Chill Index < > VSB - VISIBILITY IN MILES < > HX - HEAT INDEX < > TC - TEMPERATURE IN CELSIUS < > VRB - VARIABLE WIND DIRECTION < > < >>>>>>>>>>>>>>>>>>>>>>>>>>>> KEY <<<<<<<<<<<<<<<<<<<<<<<<<<<

USA.gov is the U.S. government's official web portal to all federal, state and local government web resources and services.